Grand Canyon, AZ

8:52 AM MST on March 29, 2017 (GMT -0700)
Grand Canyon National Park

Weather History for KGCN - November, 2011

Change the Weather History Date:

Sunday, November 20, 2011

  Actual Average Record
Temperature  
Mean Temperature 40 °F -  
Max Temperature 48 °F 49 °F 63 °F (2006)
Min Temperature 30 °F 18 °F -6 °F (1985)
Degree Days  
Heating Degree Days 25    
Moisture  
Dew Point 31 °F    
Average Humidity 73    
Maximum Humidity 93    
Minimum Humidity 46    
Precipitation  
Precipitation 0.00 in - - ()
Sea Level Pressure  
Sea Level Pressure 29.96 in    
Wind  
Wind Speed 9 mph (SSW)    
Max Wind Speed 16 mph    
Max Gust Speed 28 mph    
Visibility 10 miles    
Events      
Averages and records for this station are not official NWS values.
T = Trace of Precipitation, MM = Missing Value Source: NWS Daily Summary

Daily Weather History Graph

Daily Weather History Graph

Search for Another Location

Airport or City:

Trip Planner

Search our weather history database for the weather conditions in past years. The results will help you decide how hot, cold, wet, or windy it might be!

Date:

Astronomy

Nov. 20, 2011 Rise Set
Actual Time 7:09 AM MST 5:18 PM MST
Civil Twilight 6:42 AM MST 5:45 PM MST
Nautical Twilight 6:11 AM MST 6:16 PM MST
Astronomical Twilight 5:40 AM MST 6:47 PM MST
Moon 1:51 AM MST (11/20) 2:01 PM MST (11/20)
Length of Visible Light 11h 03m
Length of Day
10h 08m
Waning Crescent, 26% of the Moon is Illuminated
Nov 20
Waning Crescent
Nov 24
New
Dec 2
First Quarter
Dec 10
Full
Dec 17
Last Quarter

Hourly Weather History & Observations

Time (MST) Temp. Windchill Dew Point Humidity Pressure Visibility Wind Dir Wind Speed Gust Speed Precip Events Conditions
12:54 AM 37.0 °F 29.3 °F 32.0 °F 82% 29.83 in 10.0 mi SSW 11.5 mph 19.6 mph N/A   Scattered Clouds
1:32 AM 37.4 °F 31.4 °F 33.8 °F 87% 29.95 in 10.0 mi SSW 8.1 mph - N/A   Overcast
1:54 AM 37.9 °F 30.9 °F 33.1 °F 83% 29.82 in 10.0 mi SSW 10.4 mph 17.3 mph N/A   Overcast
2:32 AM 37.4 °F 29.8 °F 33.8 °F 87% 29.95 in 10.0 mi SW 11.5 mph - N/A   Overcast
3:54 AM 37.9 °F 32.1 °F 33.1 °F 83% 29.83 in 10.0 mi SSW 8.1 mph - N/A   Overcast
4:54 AM 37.4 °F 31.4 °F 32.0 °F 81% 29.95 in 10.0 mi SW 8.1 mph - N/A   Overcast
6:42 AM 37.4 °F 30.8 °F 33.8 °F 87% 29.98 in 10.0 mi SSW 9.2 mph - N/A   Overcast
6:54 AM 36.0 °F 29.0 °F 33.1 °F 89% 29.92 in 10.0 mi SSW 9.2 mph 17.3 mph N/A   Overcast
7:06 AM 35.6 °F 29.9 °F 33.8 °F 93% 29.99 in 10.0 mi SSW 6.9 mph - N/A   Overcast
7:54 AM 36.0 °F 30.3 °F 33.1 °F 89% 29.94 in 10.0 mi SSW 6.9 mph - N/A   Overcast
8:15 AM 37.4 °F 31.4 °F 33.8 °F 87% 30.01 in 10.0 mi SSW 8.1 mph - N/A   Overcast
8:41 AM 37.4 °F 30.3 °F 33.8 °F 87% 30.02 in 10.0 mi SSW 10.4 mph - N/A   Scattered Clouds
8:46 AM 39.2 °F 32.5 °F 33.8 °F 81% 30.02 in 10.0 mi SSW 10.4 mph 18.4 mph N/A   Mostly Cloudy
8:52 AM 39.2 °F 32.5 °F 33.8 °F 81% 30.02 in 10.0 mi SSW 10.4 mph 18.4 mph N/A   Scattered Clouds
8:54 AM 39.0 °F 32.3 °F 34.0 °F 82% 29.96 in 10.0 mi SSW 10.4 mph - N/A   Scattered Clouds
9:54 AM 43.0 °F 36.0 °F 30.9 °F 62% 29.96 in 10.0 mi SW 13.8 mph - N/A   Clear
10:54 AM 45.0 °F 38.9 °F 30.9 °F 58% 29.96 in 10.0 mi SSW 12.7 mph 21.9 mph N/A   Clear
11:54 AM 46.0 °F 39.6 °F 30.0 °F 54% 29.95 in 10.0 mi South 15.0 mph 24.2 mph N/A   Mostly Cloudy
12:54 PM 48.0 °F - 28.0 °F 46% 29.92 in 10.0 mi SW 16.1 mph 27.6 mph N/A   Partly Cloudy
1:54 PM 46.9 °F - 27.0 °F 46% 29.92 in 10.0 mi South 12.7 mph - N/A   Mostly Cloudy
2:54 PM 46.9 °F - 28.9 °F 50% 29.91 in 10.0 mi South 8.1 mph 17.3 mph N/A   Overcast
3:54 PM 46.0 °F 39.3 °F 28.0 °F 50% 29.92 in 10.0 mi SW 16.1 mph - N/A   Mostly Cloudy
4:54 PM 44.6 °F 39.2 °F 28.4 °F 53% 30.02 in 10.0 mi SSW 10.4 mph - N/A   Scattered Clouds
5:54 PM 43.0 °F 38.8 °F 28.9 °F 58% 29.96 in 10.0 mi SSW 6.9 mph - N/A   Overcast
6:54 PM 42.1 °F 37.1 °F 30.0 °F 62% 29.98 in 10.0 mi South 8.1 mph - N/A   Mostly Cloudy
7:54 PM 41.0 °F 35.2 °F 28.9 °F 62% 29.98 in 10.0 mi South 9.2 mph - N/A   Overcast
8:54 PM 39.0 °F 35.7 °F 30.0 °F 70% 29.99 in 10.0 mi SE 4.6 mph - N/A   Clear
9:54 PM 34.0 °F - 27.0 °F 75% 29.99 in 10.0 mi Calm Calm - N/A   Scattered Clouds
10:54 PM 32.0 °F 28.7 °F 27.0 °F 82% 29.99 in 10.0 mi SSW 3.5 mph - N/A   Mostly Cloudy
11:21 PM 33.8 °F - 28.4 °F 81% 30.06 in 10.0 mi Calm Calm - N/A   Partly Cloudy
11:54 PM 30.9 °F - 27.0 °F 85% 29.98 in 10.0 mi Calm Calm - N/A   Clear